Regional Weather Roundup
Issued by NWS

Home | Current Version | Previous Version | Graphics & Text | Print | Product List | Glossary On
Versions: 1 2 3 4 5 6 7 8 9 10 11 12 13 14 15 16 17 18 19 20 21 22 23 24 25 26 27
000
ASUS45 KTFX 181510
RWRMT
MONTANA REGIONAL WEATHER ROUNDUP
NATIONAL WEATHER SERVICE GREAT FALLS MT
900 AM MDT WED APR 18 2018

NOTE: "FAIR" INDICATES FEW OR NO CLOUDS BELOW 12000 FEET WITH NO
SIGNIFICANT WEATHER AND/OR OBSTRUCTIONS TO VISIBILITY.

MTZ001>007-043-181600-
WEST OF THE DIVIDE

CITY           SKY/WX    TMP DP  RH WIND       PRES   REMARKS
KALISPELL      PTSUNNY   39  31  72 SW6       30.24R
MISSOULA       FAIR      32  27  81 CALM      30.26S
BUTTE          FAIR      29  19  66 CALM      30.22S
MULLAN PASS    PTSUNNY   24  23  96 VRB5      30.15R
ANACONDA         N/A     34  16  47 S6        30.22F WCI  29
DEER LODGE       N/A     34  21  60 SE3       30.25S
HAMILTON         N/A     36  21  55 MISG      30.25S
RONAN            N/A     37  28  70 CALM      30.26S
$$

MTZ008-052>055-181600-
SOUTHWEST MONTANA

CITY           SKY/WX    TMP DP  RH WIND       PRES   REMARKS
BOZEMAN        FAIR      35  24  64 S7        30.26R WCI  29
DILLON         FAIR      30  21  69 SW9       30.23R WCI  22
ENNIS          CLOUDY    34  23  64 S13       30.26S WCI  25
W YELLOWSTONE  PTSUNNY   21  16  79 NE3       30.23S
THREE FORKS      N/A     35  27  73 CALM      30.21S
$$

MTZ009-010-012-014-046-048-049-054-181600-
EAST SLOPES AND CENTRAL MONTANA

CITY           SKY/WX    TMP DP  RH WIND       PRES   REMARKS
CUT BANK       FAIR      40  21  46 W23       30.15R
GREAT FALLS    FAIR      40  20  44 SW17      30.20R
HELENA         FAIR      34  23  64 NE3       30.24R
AUGUSTA        FAIR      37  16  42 W17       30.16R WCI  27
CHOTEAU          N/A     41  19  42 SW5       30.18R
POWER          FAIR      37  21  51 SW15      30.18R WCI  28
RAYNESFORD     FAIR      39  15  38 SW16      30.20S WCI  30
WHITE SULPHUR    N/A     34  18  51 S14       30.21R WCI  24
$$

MTZ011-013-016-021-045-047-050-051-181600-
NORTH CENTRAL MONTANA

CITY           SKY/WX    TMP DP  RH WIND       PRES   REMARKS
HAVRE          FAIR      40  28  62 SW16      30.20R
LEWISTOWN      FAIR      39  16  39 W7        30.21R
N BAR RANCH    FAIR      39  12  33 W14       30.21R WCI  31
CHINOOK          N/A     43  28  56 W13       30.19R
STANFORD       FAIR      39  15  38 W15       30.19S WCI  30
$$

MTZ017>020-022>027-061-062-181600-
NORTHEAST MONTANA

CITY           SKY/WX    TMP DP  RH WIND       PRES   REMARKS
GLASGOW        FAIR      41  35  79 NW13      30.17R
GLENDIVE       FAIR      41  33  73 N22       30.13R
JORDAN           N/A     45  30  55 NW14      30.17R
MALTA          SUNNY     39  34  81 NW13      30.17R WCI  32
SIDNEY         FAIR      34  34 100 NW5       30.15R FOG
WOLF POINT     FAIR      34  32  92 W6        30.18R WCI  29
PLENTYWOOD       N/A     30  30 100 CALM      30.15R
POPLAR           N/A     34  28  80 CALM      30.17R
$$

MTZ028>42-056>058-181600-
SOUTHCENTRAL AND SOUTHEAST MONTANA

CITY           SKY/WX    TMP DP  RH WIND       PRES   REMARKS
BAKER          FAIR      38  33  82 W13       30.14R WCI  30
BILLINGS       FAIR      42  23  46 SW9       30.24R
LIVINGSTON     FAIR      37  25  61 W8        30.23R WCI  31
MILES CITY     FAIR      43  32  65 W16       30.18R
BIG TIMBER     SUNNY     41  19  42 W17       30.24R
FORSYTH          N/A     45  27  49 W12       30.21R
HARLOWTON      FAIR      38  17  42 W21       30.21R WCI  28
LAUREL           N/A     41  25  52 S9        30.25R
$$

REGIONAL REPORTS...DAKOTAS

CITY           SKY/WX    TMP DP  RH WIND       PRES   REMARKS
WILLISTON      FOG       34  33  96 CALM      30.14R VSB 1/4
MINOT          CLOUDY    37  29  72 CALM      30.13R
DICKINSON      CLOUDY    33  32  96 CALM      30.11R FOG
BEACH          FAIR      37  36  93 W12       30.15R WCI  30
CROSBY         FOG       32  32 100 W9        30.15R VSB<1/4 WCI  24
TIOGA          FOG       32  32 100 CALM      30.14R VSB 1/4
WATFORD CITY   FOG       32  32 100 CALM      30.13S VSB 1/4
BISMARCK       CLOUDY    37  35  92 W6        30.13F
GRAND FORKS    FAIR      38  19  46 NE12      30.13R WCI  30
FARGO          FAIR      40  28  62 NE13      30.07F
BUFFALO SD       N/A     42  32  67 NW22      30.05S
RAPID CITY     FAIR      46  30  53 NW33G40   30.11R
$$

REGIONAL REPORTS...WYOMING/IDAHO/WASHINGTON

CITY           SKY/WX    TMP DP  RH WIND       PRES   REMARKS
GILLETTE       FAIR      40  28  62 NW15      30.20R
SHERIDAN       FAIR      43  25  49 NW17      30.24R
BUFFALO WY     FAIR      41  21  44 N14       30.22R
CODY           FAIR      40  17  39 W10       30.24R
YELLOWSTONE LA   N/A     18  14  84 CALM      30.26R
IDAHO FALLS    FAIR      33  22  63 NW6       30.27S WCI  28
SALMON         FAIR      32  27  81 NW3       30.27S
BOISE          FAIR      45  20  36 SE14      30.17F
SPOKANE        PTSUNNY   39  31  72 E6        30.22S
$$

REGIONAL REPORTS...ALBERTA

CITY           SKY/WX    TMP DP  RH WIND       PRES   REMARKS
CALGARY        MOSUNNY   37  25  60 S7        30.08R
CARDSTON         N/A     39  21  48 W9          N/A
EDMONTON       SUNNY     36  21  55 SW8       30.06R WCI  29
FORT MCMURRAY  PTSUNNY   34  28  80 W13       29.95  WCI  25
HIGH LEVEL     SUNNY     28  23  80 VRB2      29.90R
LETHBRIDGE     MOSUNNY   43  23  45 W18G24    30.12R
LLOYDMINSTER   MOSUNNY   36  28  75 W14       30.06R WCI  27
MEDICINE HAT   MOSUNNY   39  32  75 S3        30.15R
PEACE RIVER    MOSUNNY   25  21  86 S5        29.98R
PINCHER CREEK  SUNNY     37  23  56 W20       30.12R WCI  27
WATERTON GATE    N/A     36  21  55 SW17G26     N/A  WCI  25
$$

REGIONAL REPORTS...SASKATCHEWAN

CITY           SKY/WX    TMP DP  RH WIND       PRES   REMARKS
CORONACH         N/A     30  28  93 NW13        N/A  WCI  20
CYPRESS HILLS    N/A     34  25  69 SE3         N/A
ESTEVAN        FOG       34  34 100 W7        30.13R VSB 1   WCI  28
MOOSE JAW        N/A     28  28 100 NW13        N/A  WCI  18
PRINCE ALBERT  MOSUNNY   34  30  86 SW6       30.13R WCI  29
REGINA         CLOUDY    32  32 100 VRB2      30.16S FOG
ROCKGLEN         N/A     32  30  93 N9          N/A  WCI  24
SASKATOON      SUNNY     34  28  80 S6        30.17R WCI  29
SWIFT CURRENT  SUNNY     37  28  70 E5        30.15R
VAL MARIE        N/A     39  34  81 NE8         N/A
$$




USA.gov is the U.S. government's official web portal to all federal, state and local government web resources and services.